Wind_Speed
18 7 8 22 43 28 15 28 19 36 29 46 39 38 30 22 21 14 24 28 29 35 39 49 48 44 41 38 37 37 37 36 41 44 42 39 37 35 35 35 33 40 31 31
8 11 9 11 47 28 25 26 41 42 38 40 27 30 31 34 24 19 19 29 29 32 36 40 51 50 44 41 40 37 35 34 37 43 43 41 38 36 37 38 38 42 37 32
7 17 4 7 47 34 27 13 38 48 41 38 28 33 34 36 32 26 22 21 23 27 34 40 42 46 43 41 38 37 35 35 37 42 43 42 38 40 38 39 36 37 37 37
11 17 1 3 40 33 25 12 29 35 35 32 23 28 30 32 32 25 22 23 26 28 31 35 35 34 34 38 38 37 37 36 37 40 42 41 39 38 38 38 39 39 40 39
8 10 6 11 45 43 23 14 38 39 34 27 19 28 28 28 29 32 30 21 22 27 30 31 32 32 33 34 34 35 36 36 37 37 36 38 37 37 36 36 37 39 39 42
10 5 4 23 41 31 14 5 42 41 35 31 33 32 29 28 26 27 29 24 19 20 26 28 30 30 30 31 31 32 34 36 35 35 34 33 34 33 32 32 35 37 37 40
13 4 4 24 37 29 19 29 44 38 34 32 32 24 24 21 22 23 21 23 18 15 18 22 24 25 27 28 29 29 30 35 35 33 38 37 34 34 33 31 32 35 40 33
10 8 6 33 31 36 35 34 34 31 29 26 22 19 17 15 15 15 15 15 14 14 14 19 23 24 24 25 25 30 32 31 30 33 32 33 35 36 33 33 33 36 36 40
6 12 17 27 24 29 30 31 29 28 23 22 19 16 14 11 10 10 12 13 15 13 12 18 20 21 24 25 26 29 31 31 34 35 34 33 35 38 37 35 31 25 26 35
16 17 21 12 25 26 25 25 23 23 20 18 16 13 12 9 7 8 10 11 11 13 15 13 17 19 23 25 25 26 31 33 34 35 33 31 34 34 37 37 32 31 30 25
17 17 19 18 22 23 20 20 17 17 18 14 12 11 10 8 7 5 5 9 11 10 13 16 14 15 18 23 25 29 29 32 32 35 35 33 33 33 31 32 34 31 28 27
15 19 22 21 22 21 19 17 18 17 15 15 13 11 9 7 6 4 2 7 11 10 10 12 14 15 15 20 21 27 31 30 33 34 35 33 31 33 33 28 23 35 30 28
18 17 20 20 19 17 15 15 15 17 18 16 14 11 7 4 1 0 1 4 8 12 11 11 13 13 12 10 9 33 29 25 31 30 33 33 33 31 30 26 31 36 24 26
17 15 13 16 10 8 10 13 15 16 17 18 16 14 10 6 4 1 2 4 8 10 11 11 13 14 12 11 9 21 38 32 28 29 21 37 30 30 32 23 28 28 30 30
11 11 9 6 5 6 9 10 11 13 15 16 17 17 15 11 5 1 1 4 6 8 11 11 12 11 12 13 13 8 19 26 32 19 22 23 26 25 27 30 27 27 31 35
5 5 4 3 3 4 6 8 8 9 12 14 15 16 17 16 11 6 3 1 4 7 9 10 11 11 12 12 11 18 13 18 22 23 19 18 25 27 28 31 27 29 27 24
1 1 1 1 1 2 4 5 6 9 11 12 12 14 15 15 16 12 8 4 2 3 5 8 11 13 15 17 15 13 15 19 17 20 22 20 28 30 29 31 29 24 23 23
3 2 1 1 2 4 5 5 5 7 8 9 8 11 12 11 14 16 14 10 6 5 5 7 10 13 15 17 16 16 17 17 18 18 19 21 22 21 23 25 24 22 23 21
5 5 4 4 5 5 5 5 5 7 9 7 6 7 9 11 13 15 14 12 10 11 12 12 12 12 14 15 14 15 16 17 19 19 19 20 20 20 19 18 17 17 16 16
6 5 4 5 5 6 5 5 6 7 8 8 9 9 9 10 12 11 11 13 18 21 21 19 17 16 16 16 15 15 16 17 18 18 18 18 18 18 18 16 16 15 16 17
5 3 4 5 5 5 5 6 7 7 7 8 8 9 9 10 12 13 13 17 22 22 22 23 24 24 24 22 21 20 20 20 21 21 22 23 23 24 24 23 22 21 19 18
3 2 2 3 3 4 4 4 5 6 8 10 10 12 12 13 16 18 19 22 24 24 24 25 26 26 25 25 25 26 26 26 27 27 27 27 26 24 22 21 19 18 18 16
2 2 2 3 3 3 4 5 6 8 9 11 14 15 15 16 21 24 24 27 26 24 24 27 29 28 28 26 26 25 25 24 24 23 23 22 21 20 19 18 16 15 13 12
4 4 4 4 4 4 5 6 8 10 12 14 17 20 20 20 20 22 23 22 22 19 17 21 22 23 21 20 20 20 20 20 20 19 17 16 15 13 12 10 9 9 8 9
5 4 2 2 4 5 6 7 9 10 14 16 17 19 19 17 16 19 18 17 18 18 16 17 18 18 16 16 16 15 14 14 13 13 11 10 9 8 8 7 7 7 7 7
5 4 4 5 5 6 8 9 11 11 12 13 14 15 16 15 14 15 16 16 17 17 16 16 16 15 14 13 12 11 10 10 8 7 6 6 5 4 4 4 5 5 7 8
6 6 7 7 8 7 8 11 13 13 13 13 13 11 12 13 14 14 15 15 15 15 15 15 15 14 13 12 12 11 11 10 9 7 5 4 2 1 2 4 6 7 9 10
Wind_Direction
325 353 267 11 10 11 5 11 12 342 351 3 16 15 42 96 136 144 172 178 179 182 184 185 194 198 200 204 205 205 207 212 212 209 206 209 212 214 215 215 214 210 211 211
344 352 325 356 6 13 13 356 360 8 6 13 23 31 48 95 118 131 150 166 176 189 191 190 192 195 201 203 199 199 203 204 206 202 201 204 207 211 214 214 211 214 216 219
305 343 322 356 3 5 7 351 359 6 358 8 22 41 46 79 104 118 134 160 172 178 185 184 182 190 193 194 196 197 199 199 198 197 199 202 205 209 213 216 218 220 220 219
301 343 41 42 1 6 356 341 352 7 11 19 21 48 53 72 89 105 131 138 155 168 173 175 178 182 190 189 189 194 197 201 199 196 199 204 206 210 215 216 217 219 218 216
330 323 306 339 2 357 349 346 354 4 12 24 40 51 59 67 75 88 98 124 170 167 169 170 176 184 188 189 188 188 191 194 195 196 200 203 206 209 214 217 218 219 224 229
346 318 349 349 354 1 2 286 356 4 8 12 22 37 48 66 81 83 94 125 139 160 179 184 181 183 188 190 193 194 191 191 193 195 197 201 206 209 213 220 219 219 221 224
357 332 317 348 347 1 24 328 351 355 1 13 22 17 30 50 69 95 115 123 121 134 149 168 176 184 191 195 198 195 194 192 194 197 202 195 203 209 213 215 215 215 215 221
347 349 351 340 350 2 340 340 342 352 358 15 16 28 40 54 79 94 106 117 128 149 155 165 174 179 179 183 190 192 197 194 196 199 204 203 207 210 212 215 212 213 219 218
325 303 331 336 341 340 337 337 345 350 3 9 14 29 41 52 83 104 120 125 139 146 161 173 173 180 188 192 188 188 192 194 196 197 202 206 210 214 210 214 217 216 211 221
327 324 339 347 338 337 338 339 347 349 3 11 14 22 37 53 69 116 135 144 145 155 151 156 162 188 189 197 199 195 197 197 197 200 204 208 211 214 215 210 217 223 211 221
317 319 335 333 333 336 346 346 349 356 357 13 18 19 25 36 53 53 127 155 166 172 165 169 167 180 190 197 200 199 198 200 201 206 209 214 215 214 218 211 211 218 232 229
304 318 326 333 336 343 348 356 4 6 7 9 14 16 18 21 27 41 105 164 179 178 180 176 179 185 201 203 213 191 202 201 206 205 209 212 215 209 210 205 196 208 214 228
296 306 323 330 337 342 0 15 15 17 16 18 19 17 13 26 46 299 144 167 181 187 186 184 197 195 191 193 213 196 190 201 205 208 211 216 215 216 223 206 211 226 214 208
288 301 315 315 333 348 17 24 20 22 25 27 24 24 17 21 24 327 186 179 175 178 193 193 190 196 196 189 187 193 192 194 206 208 221 212 208 220 217 213 214 216 216 208
283 299 315 327 346 18 27 26 24 26 32 31 31 31 28 24 16 344 183 172 171 174 193 205 193 182 187 194 187 192 184 193 205 199 196 215 210 220 212 201 217 222 217 213
294 303 326 1 27 35 38 32 34 38 43 42 35 36 37 34 35 35 40 116 193 197 199 204 202 197 186 178 191 195 170 192 207 213 202 212 211 201 207 207 210 217 223 225
100 182 93 56 55 66 61 54 45 48 44 42 40 46 40 34 37 42 49 69 135 172 177 187 189 191 186 186 191 194 189 201 201 204 206 216 209 202 197 200 208 213 219 222
98 109 105 122 96 72 57 47 49 50 50 46 40 52 54 46 47 50 52 60 75 98 124 151 162 175 182 185 185 182 188 199 201 196 193 191 189 185 190 195 196 204 210 212
108 97 93 83 68 58 50 45 50 51 51 46 49 58 64 64 61 63 65 72 88 106 116 122 131 147 156 159 166 176 179 183 186 183 181 182 182 179 180 183 190 194 199 204
102 98 89 73 63 55 51 58 63 60 57 58 56 59 66 76 80 84 94 100 95 92 94 100 111 123 129 131 138 147 154 159 163 163 162 162 161 160 158 159 163 166 168 170
107 108 86 67 61 58 54 58 65 66 70 72 77 87 83 91 100 102 106 105 97 94 97 102 104 107 111 115 121 126 131 135 139 141 141 142 141 140 140 141 143 145 147 150
129 124 111 90 80 67 66 74 83 97 105 106 97 101 111 117 117 115 114 107 102 101 102 103 103 103 106 112 116 120 124 127 129 130 133 134 136 137 138 141 144 147 151 151
149 148 132 131 124 116 113 104 111 116 117 118 111 106 108 114 113 99 97 94 87 85 92 98 99 101 104 108 110 113 115 118 120 123 125 126 127 129 132 136 140 144 148 157
147 138 147 140 138 151 142 129 122 119 117 117 120 114 107 107 109 108 103 102 99 95 97 98 98 98 100 103 104 105 109 114 116 119 122 125 129 133 136 140 145 156 168 178
185 155 121 142 138 154 159 156 141 137 133 123 116 109 104 98 100 97 101 104 106 108 110 109 107 104 107 111 114 116 117 117 119 121 122 125 130 137 146 156 169 184 196 208
216 224 222 195 182 160 157 161 158 147 134 124 122 118 109 107 111 108 105 102 101 101 101 99 99 100 100 101 102 106 109 110 114 119 126 136 148 163 179 194 210 221 230 235
237 228 213 198 186 187 166 160 161 151 139 127 117 121 126 123 116 109 105 100 96 93 91 91 89 90 91 92 93 93 93 93 93 93 96 104 124 185 244 253 254 254 254 255
Height
2975 2971 2968 2966 2960 2950 2944 2942 2939 2928 2917 2904 2894 2890 2885 2885 2887 2890 2895 2903 2910 2918 2926 2933 2944 2953 2961 2970 2979 2987 2995 3003 3011 3020 3029 3036 3044 3051 3057 3065 3071 3079 3084 3088
2972 2970 2968 2966 2962 2952 2947 2943 2937 2925 2913 2913 2907 2897 2893 2887 2890 2895 2899 2905 2912 2918 2925 2933 2940 2951 2960 2969 2977 2985 2993 2999 3007 3015 3022 3031 3039 3045 3052 3059 3066 3072 3078 3084
2972 2969 2967 2969 2962 2956 2951 2948 2942 2929 2924 2910 2906 2900 2894 2891 2894 2900 2904 2909 2914 2919 2926 2933 2940 2949 2958 2966 2975 2982 2989 2996 3002 3009 3017 3026 3033 3040 3047 3054 3061 3066 3072 3078
2975 2969 2967 2972 2967 2958 2954 2951 2948 2939 2927 2919 2913 2909 2904 2901 2901 2904 2906 2911 2916 2922 2927 2934 2941 2949 2958 2965 2972 2979 2986 2992 2999 3006 3014 3021 3028 3035 3041 3048 3054 3061 3067 3072
2982 2974 2972 2969 2961 2956 2954 2951 2949 2941 2933 2926 2919 2913 2910 2909 2908 2908 2908 2914 2919 2924 2930 2936 2943 2950 2959 2966 2972 2977 2983 2989 2996 3003 3010 3017 3024 3030 3036 3042 3048 3055 3061 3066
2982 2979 2975 2974 2962 2958 2952 2950 2942 2935 2931 2926 2920 2912 2912 2910 2911 2913 2914 2919 2923 2927 2932 2938 2944 2951 2958 2965 2972 2977 2983 2989 2995 3002 3009 3015 3021 3027 3033 3037 3043 3048 3055 3060
2984 2981 2978 2975 2968 2959 2956 2959 2941 2935 2930 2923 2920 2922 2917 2915 2915 2918 2920 2923 2927 2931 2935 2940 2945 2951 2957 2963 2969 2975 2981 2986 2993 2999 3005 3011 3017 3023 3028 3033 3038 3043 3049 3053
2989 2985 2981 2977 2971 2964 2966 2958 2950 2944 2936 2929 2927 2926 2924 2923 2923 2925 2927 2929 2932 2935 2938 2942 2946 2951 2956 2961 2966 2972 2978 2984 2991 2996 3001 3007 3014 3019 3024 3029 3034 3038 3043 3048
2999 2993 2989 2982 2977 2973 2965 2958 2952 2946 2943 2937 2933 2930 2929 2928 2928 2930 2932 2934 2936 2938 2940 2943 2947 2952 2956 2960 2965 2970 2976 2981 2987 2992 2998 3003 3009 3014 3019 3024 3028 3033 3038 3042
2995 2991 2988 2984 2979 2973 2967 2961 2955 2949 2944 2940 2937 2935 2934 2933 2932 2933 2934 2935 2937 2940 2942 2944 2948 2951 2956 2960 2965 2969 2974 2979 2984 2990 2995 3000 3005 3009 3014 3019 3023 3027 3032 3037
2992 2988 2987 2984 2979 2973 2968 2962 2957 2952 2947 2943 2940 2937 2935 2935 2934 2934 2934 2935 2938 2940 2942 2945 2948 2951 2955 2959 2963 2967 2971 2976 2981 2986 2991 2996 3000 3005 3009 3012 3020 3025 3030 3033
2989 2987 2983 2980 2975 2971 2967 2962 2956 2953 2949 2944 2941 2939 2937 2935 2935 2935 2936 2937 2938 2940 2942 2944 2947 2949 2952 2956 2959 2962 2967 2972 2976 2981 2987 2992 2995 2999 3003 3004 3009 3016 3022 3027
2985 2984 2981 2977 2974 2971 2967 2963 2959 2955 2950 2945 2942 2940 2939 2938 2937 2937 2936 2937 2938 2940 2942 2944 2946 2947 2949 2951 2953 2956 2960 2967 2972 2978 2983 2988 2992 2996 2999 3003 3007 3013 3017 3021
2981 2980 2980 2975 2973 2971 2968 2964 2961 2957 2953 2948 2945 2942 2940 2938 2936 2936 2936 2937 2938 2939 2941 2943 2945 2947 2948 2950 2950 2952 2959 2964 2969 2973 2975 2982 2988 2992 2996 2999 3005 3008 3012 3017
2978 2978 2976 2974 2972 2970 2968 2966 2963 2959 2955 2952 2948 2945 2942 2940 2938 2937 2936 2936 2937 2938 2940 2942 2944 2946 2947 2949 2952 2953 2953 2959 2966 2969 2975 2980 2983 2988 2991 2996 3000 3004 3008 3012
2976 2976 2975 2974 2973 2972 2969 2967 2965 2962 2959 2956 2953 2950 2946 2943 2940 2937 2936 2935 2936 2938 2939 2940 2942 2944 2946 2949 2952 2954 2956 2959 2964 2968 2972 2977 2980 2984 2988 2992 2996 3000 3005 3008
2975 2976 2976 2975 2974 2973 2971 2969 2967 2964 2961 2959 2957 2954 2951 2948 2944 2941 2938 2936 2936 2936 2938 2939 2941 2942 2945 2948 2950 2954 2957 2961 2963 2967 2971 2974 2977 2981 2984 2989 2993 2998 3002 3005
2977 2976 2976 2976 2975 2973 2971 2970 2968 2966 2964 2962 2961 2957 2955 2953 2949 2945 2942 2940 2938 2938 2938 2939 2940 2942 2944 2947 2950 2953 2956 2959 2962 2965 2968 2972 2976 2979 2982 2987 2991 2995 2998 3001
2978 2977 2978 2977 2976 2974 2973 2972 2970 2968 2965 2964 2962 2960 2958 2956 2953 2950 2948 2946 2944 2942 2941 2941 2942 2944 2945 2948 2951 2953 2956 2959 2963 2965 2968 2972 2976 2979 2982 2986 2990 2993 2996 2999
2979 2979 2979 2978 2976 2975 2974 2973 2971 2969 2967 2966 2964 2962 2961 2959 2957 2956 2955 2953 2950 2948 2947 2946 2947 2947 2949 2950 2953 2955 2958 2961 2964 2967 2970 2973 2976 2979 2982 2986 2990 2994 2997 3000
2980 2980 2979 2978 2977 2976 2975 2974 2972 2971 2970 2968 2967 2966 2964 2963 2961 2960 2960 2958 2956 2955 2955 2954 2954 2953 2954 2955 2957 2959 2961 2964 2966 2969 2972 2976 2979 2983 2986 2990 2993 2996 3000 3003
2982 2981 2980 2979 2978 2978 2976 2975 2975 2974 2973 2972 2970 2969 2968 2967 2966 2965 2964 2963 2962 2962 2962 2961 2961 2962 2963 2964 2965 2967 2968 2970 2973 2975 2978 2981 2985 2988 2990 2993 2997 2999 3002 3005
2982 2981 2980 2980 2979 2979 2978 2978 2977 2977 2976 2975 2974 2973 2972 2972 2970 2969 2969 2968 2969 2969 2969 2968 2968 2969 2970 2972 2973 2975 2976 2978 2980 2982 2985 2987 2990 2993 2995 2998 3000 3002 3004 3007
2982 2982 2982 2981 2980 2980 2980 2980 2980 2979 2979 2978 2978 2977 2976 2976 2977 2977 2976 2976 2976 2977 2978 2977 2977 2977 2978 2980 2981 2982 2983 2985 2986 2988 2990 2992 2995 2997 2998 3000 3002 3004 3006 3008
2983 2983 2982 2982 2981 2981 2981 2981 2982 2982 2981 2981 2981 2980 2980 2981 2983 2982 2982 2983 2982 2983 2984 2983 2983 2983 2985 2986 2986 2988 2989 2990 2992 2993 2994 2995 2997 2999 3000 3002 3004 3005 3007 3008
2982 2982 2981 2982 2982 2982 2982 2982 2983 2984 2984 2984 2984 2985 2985 2986 2987 2987 2987 2987 2987 2987 2987 2987 2988 2988 2989 2990 2990 2991 2992 2993 2994 2995 2996 2998 2999 3000 3001 3002 3004 3004 3006 3007
2981 2981 2981 2980 2981 2982 2982 2983 2984 2985 2985 2986 2987 2988 2989 2990 2990 2991 2991 2991 2991 2991 2991 2991 2991 2991 2992 2993 2994 2994 2995 2995 2996 2997 2998 2999 3000 3000 3001 3002 3002 3003 3004 3004